Roanoke, VA

6:12 PM EDT on October 22, 2019 (GMT -0400)
Roanoke Regional-Woodrum

Weather History for KROA - August, 2019

Change the Weather History Date:

Thursday, August 22, 2019

  Actual Average Record
Temperature  
Mean Temperature 83 °F 75 °F  
Max Temperature 96 °F 85 °F 104 °F (1983)
Min Temperature 70 °F 65 °F 47 °F (1922)
Degree Days  
Heating Degree Days 0 0  
Month to date heating degree days 0 0  
Since 1 June heating degree days 0 11  
Since 1 July heating degree days 0 0  
Cooling Degree Days 18 10  
Month to date cooling degree days 318 239  
Year to date cooling degree days 1301 962  
Since 1 June cooling degree days 1022 846  
Growing Degree Days 34 (Base 50)    
Moisture  
Dew Point 68 °F    
Average Humidity 66    
Maximum Humidity 93    
Minimum Humidity 39    
Precipitation  
Precipitation 0.22 in 0.12 in 2.91 in (1931)
Month to date precipitation 1.37 2.48  
Year to date precipitation 28.94 27.05  
Snow  
Snow 0.00 in - - ()
Month to date snowfall 0.0  
Since 1 June snowfall T  
Since 1 July snowfall T  
Snow Depth 0.00 in    
Sea Level Pressure  
Sea Level Pressure 29.99 in    
Wind  
Wind Speed 5 mph (West)    
Max Wind Speed 39 mph    
Max Gust Speed 49 mph    
Visibility 10 miles    
Events Rain , Thunderstorm    
T = Trace of Precipitation, MM = Missing Value Source: NWS Daily Summary

Daily Weather History Graph

Daily Weather History Graph

Search for Another Location

Airport or City:

Astronomy

Aug. 22, 2019 Rise Set
Actual Time 6:41 AM EDT 8:03 PM EDT
Civil Twilight 6:14 AM EDT 8:30 PM EDT
Nautical Twilight 5:41 AM EDT 9:02 PM EDT
Astronomical Twilight 5:07 AM EDT 9:37 PM EDT
Moon No Moon Rise 1:07 PM EDT
Length of Visible Light 14h 15m
Length of Day
13h 21m
Waning Gibbous, 60% of the Moon is Illuminated
Aug 22
Waning Gibbous
Aug 23
Last Quarter
Aug 30
New
Sep 5
First Quarter
Sep 14
Full

Hourly Weather History & Observations

Time (EDT) Temp. Heat Index Dew Point Humidity Pressure Visibility Wind Dir Wind Speed Gust Speed Precip Events Conditions
12:54 AM 75.9 °F - 68.0 °F 76% 30.00 in 10.0 mi Calm Calm - N/A   Clear
1:54 AM 73.9 °F - 68.0 °F 82% 29.99 in 10.0 mi Calm Calm - N/A   Clear
2:54 AM 73.0 °F - 66.0 °F 79% 29.96 in 10.0 mi Calm Calm - N/A   Clear
3:54 AM 73.0 °F - 66.9 °F 81% 29.96 in 10.0 mi South 3.5 mph - N/A   Clear
4:54 AM 73.0 °F - 66.9 °F 81% 29.97 in 10.0 mi NNW 6.9 mph - N/A   Clear
5:54 AM 72.0 °F - 66.9 °F 84% 29.98 in 10.0 mi WNW 5.8 mph - N/A   Clear
6:54 AM 73.0 °F - 68.0 °F 84% 30.00 in 10.0 mi West 5.8 mph - N/A   Clear
7:54 AM 75.9 °F - 68.0 °F 76% 30.00 in 10.0 mi WSW 5.8 mph - N/A   Clear
8:54 AM 79.0 °F - 69.1 °F 72% 30.01 in 10.0 mi West 8.1 mph - N/A   Clear
9:54 AM 82.9 °F 86.5 °F 69.1 °F 63% 30.01 in 10.0 mi West 9.2 mph - N/A   Clear
10:54 AM 86.0 °F 90.7 °F 70.0 °F 59% 30.01 in 10.0 mi WSW 10.4 mph - N/A   Partly Cloudy
11:54 AM 91.0 °F 96.6 °F 70.0 °F 50% 29.99 in 10.0 mi WSW 11.5 mph - N/A   Partly Cloudy
12:54 PM 93.0 °F 97.4 °F 68.0 °F 44% 29.97 in 10.0 mi WNW 6.9 mph - N/A   Scattered Clouds
1:54 PM 95.0 °F 99.0 °F 66.9 °F 40% 29.96 in 10.0 mi SW 10.4 mph - N/A   Scattered Clouds
2:09 PM 80.1 °F 81.5 °F 63.0 °F 56% 30.02 in 10.0 mi WNW 25.3 mph 39.1 mph 0.00 in Rain , Thunderstorm Light Thunderstorms and Rain
2:16 PM 73.0 °F - 66.0 °F 79% 30.03 in 1.5 mi NNW 24.2 mph 49.5 mph N/A Rain , Thunderstorm Light Thunderstorms and Rain
2:37 PM 75.0 °F - 68.0 °F 79% 30.03 in 10.0 mi NW 9.2 mph - 0.14 in Rain Light Rain
2:54 PM 77.0 °F - 70.0 °F 79% 29.98 in 10.0 mi West 4.6 mph - 0.14 in Rain Light Rain
3:54 PM 82.9 °F 87.0 °F 70.0 °F 65% 29.96 in 10.0 mi Variable 3.5 mph - 0.00 in   Mostly Cloudy
4:54 PM 82.9 °F 86.5 °F 69.1 °F 63% 29.97 in 10.0 mi NW 4.6 mph - N/A   Mostly Cloudy
5:54 PM 75.0 °F - 69.1 °F 82% 30.00 in 10.0 mi NNW 5.8 mph - 0.08 in   Scattered Clouds
6:54 PM 75.0 °F - 70.0 °F 84% 29.98 in 10.0 mi West 5.8 mph - 0.00 in   Mostly Cloudy
7:54 PM 75.0 °F - 68.0 °F 79% 29.98 in 10.0 mi Calm Calm - N/A   Scattered Clouds
9:54 PM 72.0 °F - 70.0 °F 93% 30.00 in 10.0 mi Calm Calm - N/A   Clear
10:54 PM 71.1 °F - 69.1 °F 93% 30.01 in 10.0 mi NW 3.5 mph - N/A   Clear
11:54 PM 71.1 °F - 69.1 °F 93% 30.00 in 10.0 mi WSW 5.8 mph - N/A   Clear